Laramie, WY

11:31 AM MST on January 16, 2018 (GMT -0700)
Laramie Regional

Weather History for KLAR - June, 2012

Change the Weather History Date:

Sunday, June 24, 2012

  Actual Average Record
Temperature  
Mean Temperature 71 °F 60 °F  
Max Temperature 91 °F 76 °F 91 °F (1988)
Min Temperature 50 °F 44 °F 32 °F (1976)
Degree Days  
Heating Degree Days 0 5  
Month to date heating degree days 82 213  
Since 1 June heating degree days 82 213  
Since 1 July heating degree days 8152 8802  
Cooling Degree Days 6 0  
Month to date cooling degree days 28 0  
Year to date cooling degree days 28 0  
Since 1 June cooling degree days 28 0  
Growing Degree Days 20 (Base 50)    
Moisture  
Dew Point 29 °F    
Average Humidity 22    
Maximum Humidity 35    
Minimum Humidity 9    
Precipitation  
Precipitation 0.00 in 0.04 in 0.46 in (1958)
Month to date precipitation 0.17 1.30  
Year to date precipitation 2.53 5.25  
Sea Level Pressure  
Sea Level Pressure 29.89 in    
Wind  
Wind Speed 10 mph (South)    
Max Wind Speed 28 mph    
Max Gust Speed 35 mph    
Visibility 10 miles    
Events      
T = Trace of Precipitation, MM = Missing Value Source: NWS Daily Summary

Daily Weather History Graph

Daily Weather History Graph

Search for Another Location

Airport or City:

Trip Planner

Search our weather history database for the weather conditions in past years. The results will help you decide how hot, cold, wet, or windy it might be!

Date:

Astronomy

Jun. 24, 2012 Rise Set
Actual Time 5:30 AM MDT 8:39 PM MDT
Civil Twilight 4:56 AM MDT 9:13 PM MDT
Nautical Twilight 4:13 AM MDT 9:57 PM MDT
Astronomical Twilight 3:21 AM MDT 10:48 PM MDT
Moon 10:42 AM MDT (6/24) 11:35 PM MDT (6/24)
Length of Visible Light 16h 17m
Length of Day
15h 09m
Waxing Crescent, 25% of the Moon is Illuminated
Jun 24
Waxing Crescent
Jun 26
First Quarter
Jul 3
Full
Jul 10
Last Quarter
Jul 18
New

Hourly Weather History & Observations

Time (MDT) Temp. Dew Point Humidity Pressure Visibility Wind Dir Wind Speed Gust Speed Precip Events Conditions
12:53 AM 59.0 °F 24.1 °F 26% 29.76 in 10.0 mi SSW 10.4 mph - N/A   Clear
1:53 AM 55.0 °F 23.0 °F 29% 29.78 in 10.0 mi WSW 6.9 mph - N/A   Clear
2:53 AM 54.0 °F 26.1 °F 34% 29.79 in 10.0 mi SSE 8.1 mph - N/A   Clear
3:53 AM 55.0 °F 24.1 °F 30% 29.79 in 10.0 mi SSE 6.9 mph - N/A   Clear
4:53 AM 52.0 °F 24.1 °F 34% 29.83 in 10.0 mi Calm Calm - N/A   Clear
5:53 AM 51.1 °F 23.0 °F 33% 29.86 in 10.0 mi WNW 3.5 mph - N/A   Clear
6:53 AM 59.0 °F 24.1 °F 26% 29.86 in 10.0 mi WSW 6.9 mph - N/A   Clear
7:53 AM 66.0 °F 30.0 °F 26% 29.86 in 10.0 mi South 4.6 mph - N/A   Clear
8:53 AM 72.0 °F 30.0 °F 21% 29.89 in 10.0 mi ESE 3.5 mph - N/A   Clear
9:53 AM 82.9 °F 28.0 °F 14% 29.87 in 10.0 mi SW 5.8 mph - N/A   Clear
10:53 AM 87.1 °F 21.9 °F 9% 29.86 in 10.0 mi WSW 10.4 mph - N/A   Clear
11:53 AM 87.1 °F 23.0 °F 10% 29.86 in 10.0 mi West 4.6 mph - N/A   Clear
12:53 PM 88.0 °F 25.0 °F 10% 29.86 in 10.0 mi SE 10.4 mph - N/A   Clear
1:53 PM 87.1 °F 27.0 °F 11% 29.90 in 10.0 mi SSE 24.2 mph 29.9 mph N/A   Clear
2:53 PM 87.1 °F 27.0 °F 11% 29.89 in 10.0 mi South 6.9 mph - N/A   Clear
3:53 PM 89.1 °F 27.0 °F 11% 29.86 in 10.0 mi East 9.2 mph 17.3 mph N/A   Clear
4:53 PM 82.0 °F 33.1 °F 17% 29.93 in 10.0 mi WSW 24.2 mph 31.1 mph N/A   Clear
5:00 PM 80.6 °F 35.6 °F 20% 30.28 in 10.0 mi SW 25.3 mph 32.2 mph N/A   Partly Cloudy
5:53 PM 80.1 °F 35.1 °F 20% 29.94 in 10.0 mi West 15.0 mph - N/A   Clear
6:53 PM 80.1 °F 33.1 °F 18% 29.90 in 10.0 mi SSW 3.5 mph - N/A   Clear
7:53 PM 80.1 °F 35.1 °F 20% 29.88 in 10.0 mi SE 10.4 mph 17.3 mph N/A   Clear
8:53 PM 75.0 °F 33.1 °F 22% 29.87 in 10.0 mi SE 10.4 mph - N/A   Clear
9:53 PM 71.6 °F 35.6 °F 27% 30.28 in 10.0 mi South 10.4 mph - N/A   Clear
10:53 PM 69.1 °F 36.0 °F 30% 29.86 in 10.0 mi SE 9.2 mph - N/A   Clear
11:53 PM 71.1 °F 39.9 °F 32% 29.87 in 10.0 mi SE 24.2 mph 33.4 mph N/A   Mostly Cloudy